This demonstration page uses our WeatherBlox Daily Observations layout. Learn more.

Left ArrowRight Arrow

44.89941, -97.11507

Hourly Observations for January 15, 2021

Temp ( °F °C ) Dew Point ( °F °C ) Humidity (%) Winds ( mph kmh ) Pressure ( in mb ) Visibility ( mi km ) Precip ( " mm )
12:04 am 00:04 Windy with Snow Likely 27 -2.8 24 -4.4 89 89 NNW 30 48 29.73 1007 3 4 0.00 0.00
12:11 am 00:11 Windy with Snow Likely 27 -2.8 24 -4.4 89 89 NNW 30 48 29.73 1007 1 2 0.00 0.00
12:20 am 00:20 Windy with Snow Likely 27 -2.8 24 -4.4 89 89 NNW 31 50 29.73 1007 2 2 0.00 0.00
12:33 am 00:33 Windy with Snow Likely 27 -2.8 24 -4.4 89 89 NNW 33 54 29.73 1007 3 4 0.00 0.00
12:51 am 00:51 Windy with Snow Likely 27 -3 25 -4 93 93 NNW 35 56 29.73 1007 1 2 0.00 0.00
12:53 am 00:53 Windy with Snow Likely 27 -2.8 24 -4.4 89 89 NNW 31 50 29.69 1005 1 2 0.00 0.00
1:06 am 01:06 Windy with Snow Likely 27 -2.8 24 -4.4 89 89 NNW 32 52 29.73 1007 2 3 0.00 0.00
1:39 am 01:39 Windy with Snow Likely 27 -2.8 24 -4.4 89 89 NNW 32 52 29.73 1007 1 2 0.00 0.00
1:53 am 01:53 Windy with Snow Likely 27 -2.8 24 -4.4 89 89 NNW 33 54 29.69 1005 1 2 0.02 0.51
2:08 am 02:08 Windy with Snow Likely 27 -2.8 24 -4.4 89 89 NNW 30 48 29.74 1007 2 2 0.00 0.00
2:29 am 02:29 Windy with Snow Likely 27 -2.8 24 -4.4 89 89 NNW 31 50 29.74 1007 3 4 0.00 0.00
2:53 am 02:53 Windy with Snow Likely 27 -2.8 24 -4.4 89 89 NNW 35 56 29.70 1006 2 2 0.00 0.00
2:57 am 02:57 Windy with Snow Likely 27 -2.8 24 -4.4 89 89 NNW 32 52 29.74 1007 1 2 0.00 0.00
3:26 am 03:26 Windy with Snow Likely 27 -2.8 24 -4.4 89 89 NNW 31 50 29.74 1007 2 3 0.00 0.00
3:36 am 03:36 Windy with Snow Likely 27 -2.8 24 -4.4 89 89 NNW 30 48 29.74 1007 1 2 0.00 0.00
3:53 am 03:53 Windy with Snow Likely 26 -3.3 24 -4.4 92 92 NNW 31 50 29.71 1006 1 2 0.00 0.00
4:53 am 04:53 Windy with Snow Likely 26 -3.3 24 -4.4 92 92 NNW 30 48 29.72 1007 1 2 0.00 0.00
5:53 am 05:53 Windy with Snow Likely 27 -2.8 24 -4.4 89 89 NNW 33 54 29.75 1007 1 2 0.00 0.00
6:19 am 06:19 Windy with Snow Likely 27 -2.8 25 -3.9 92 92 NNW 29 46 29.79 1009 2 2 0.00 0.00
6:27 am 06:27 Windy with Snow Likely 27 -2.8 25 -3.9 92 92 NNW 32 52 29.79 1009 1 2 0.00 0.00
6:35 am 06:35 Windy with Snow Likely 27 -2.8 25 -3.9 92 92 NNW 33 54 29.79 1009 1 1 0.01 0.25
6:53 am 06:53 Windy with Snow Likely 27 -2.8 25 -3.9 92 92 NNW 29 46 29.76 1008 1 2 0.01 0.25
7:03 am 07:03 Windy with Snow Likely 27 -2.8 25 -3.9 92 92 NNW 29 46 29.80 1009 2 2 0.00 0.00
7:20 am 07:20 Windy with Snow Likely 27 -2.8 25 -3.9 92 92 NNW 29 46 29.81 1009 1 2 0.00 0.00
7:27 am 07:27 Windy with Snow Likely 27 -2.8 25 -3.9 92 92 NNW 26 43 29.81 1009 2 3 0.00 0.00
7:48 am 07:48 Windy with Snow Likely 27 -3 25 -4 93 93 NNW 31 50 29.81 1009 2 3 0.00 0.00
7:53 am 07:53 Windy with Snow Likely 27 -2.8 25 -3.9 92 92 NNW 31 50 29.78 1008 2 2 0.00 0.00
8:34 am 08:34 Windy with Snow Likely 26 -3.3 25 -3.9 96 96 NNW 29 46 29.84 1011 2 3 0.00 0.00
8:40 am 08:40 Windy with Snow Likely 26 -3.3 25 -3.9 96 96 NNW 28 44 29.84 1011 1 2 0.00 0.00
8:53 am 08:53 Windy with Snow Likely 27 -2.8 25 -3.9 92 92 N 30 48 29.81 1010 2 3 0.00 0.00
9:20 am 09:20 Windy with Snow Likely 27 -2.8 25 -3.9 92 92 NNW 31 50 29.86 1011 1 2 0.00 0.00
9:53 am 09:53 Windy with Snow Likely 27 -2.8 25 -3.9 92 92 NNW 28 44 29.85 1011 1 2 0.00 0.00
10:28 am 10:28 Windy with Snow Likely 27 -2.8 24 -4.4 89 89 N 29 46 29.89 1012 2 3 0.00 0.00
10:53 am 10:53 Windy with Snow Likely 27 -2.8 25 -3.9 92 92 N 32 52 29.88 1012 2 3 0.00 0.00
11:12 am 11:12 Windy with Snow Likely 27 -2.8 25 -3.9 92 92 NNW 31 50 29.90 1012 1 2 0.00 0.00
11:22 am 11:22 Windy with Snow Likely 27 -2.8 25 -3.9 92 92 NNW 33 54 29.91 1013 2 2 0.00 0.00
11:49 am 11:49 Windy with Snow Likely 27 -3 25 -4 93 93 NNW 31 50 29.92 1013 1 2 0.00 0.00
11:53 am 11:53 Windy with Snow Likely 27 -2.8 25 -3.9 92 92 NNW 30 48 29.88 1012 1 2 0.00 0.00
12:29 pm 12:29 Windy with Snow Likely 27 -2.8 25 -3.9 92 92 NNW 35 56 29.92 1013 1 1 0.00 0.00
12:39 pm 12:39 Windy with Snow Likely 27 -2.8 25 -3.9 92 92 NNW 26 43 29.92 1013 1 2 0.00 0.00
12:53 pm 12:53 Windy with Snow Likely 26 -3.3 24 -4.4 92 92 NNW 33 54 29.89 1012 1 1 0.00 0.00
1:15 pm 13:15 Windy with Snow Likely 26 -3.3 23 -5 88 88 NNW 30 48 29.93 1014 2 2 0.00 0.00
1:29 pm 13:29 Windy with Snow Likely 25 -3.9 23 -5 92 92 N 30 48 29.95 1014 1 2 0.00 0.00
1:38 pm 13:38 Windy with Snow Likely 25 -3.9 23 -5 92 92 N 29 46 29.94 1014 2 3 0.00 0.00
1:46 pm 13:46 Windy with Snow Likely 26 -3.3 23 -5 88 88 N 26 43 29.94 1014 3 5 0.00 0.00
1:53 pm 13:53 Windy with Snow Likely 25 -3.9 23 -5 92 92 NNW 28 44 29.91 1013 3 4 0.00 0.00
2:00 pm 14:00 Windy with Snow Likely 25 -3.9 23 -5 92 92 N 32 52 29.96 1014 1 2 0.00 0.00
2:07 pm 14:07 Windy with Snow Likely 25 -3.9 22 -5.6 88 88 N 29 46 29.95 1014 2 3 0.00 0.00
2:15 pm 14:15 Cloudy with Mist and Fog 25 -3.9 23 -5 92 92 N 25 41 29.96 1014 4 6 0.00 0.00
2:23 pm 14:23 Windy with Snow Likely 25 -3.9 23 -5 92 92 N 26 43 29.96 1014 2 3 0.00 0.00
2:40 pm 14:40 Windy with Snow Likely 25 -3.9 22 -5.6 88 88 NNW 24 39 29.96 1014 1 2 0.00 0.00
2:48 pm 14:48 Windy with Snow Likely 25 -4 21 -6 86 86 N 30 48 29.97 1015 2 2 0.00 0.00
2:53 pm 14:53 Windy with Snow Likely 25 -3.9 22 -5.6 88 88 N 29 46 29.93 1014 1 2 0.00 0.00
3:00 pm 15:00 Windy with Snow Likely 25 -3.9 22 -5.6 88 88 N 28 44 29.98 1015 2 3 0.00 0.00
3:07 pm 15:07 Windy with Snow Likely 25 -3.9 22 -5.6 88 88 N 25 41 29.98 1015 3 4 0.00 0.00
3:16 pm 15:16 Cloudy with Mist and Fog 25 -3.9 23 -5 92 92 N 24 39 29.98 1015 3 5 0.00 0.00
3:25 pm 15:25 Windy with Snow Likely 25 -3.9 22 -5.6 88 88 NNW 24 39 29.99 1015 2 3 0.00 0.00
3:38 pm 15:38 Windy with Snow Likely 24 -4.4 22 -5.6 91 91 NNW 23 37 29.99 1016 3 5 0.00 0.00
3:53 pm 15:53 Windy with Snow Likely 24 -4.4 21 -6.1 88 88 N 24 39 29.97 1015 3 4 0.00 0.00
4:20 pm 16:20 Cloudy with Mist and Fog 24 -4.4 21 -6.1 88 88 NNW 22 35 30.01 1016 4 6 0.00 0.00
4:31 pm 16:31 Windy with Snow Likely 24 -4.4 21 -6.1 88 88 NNW 20 31 30.01 1016 3 4 0.00 0.00
4:50 pm 16:50 Cloudy with Mist and Fog 23 -5 21 -6 93 93 NNW 21 33 30.03 1017 5 8 0.00 0.00
4:53 pm 16:53 Cloudy 23 -5 21 -6.1 92 92 NNW 17 28 29.98 1015 7 11 0.00 0.00
5:53 pm 17:53 Cloudy 24 -4.4 21 -6.1 88 88 NNW 20 31 29.99 1016 10 16 0.00 0.00
6:43 pm 18:43 Cloudy 23 -5 21 -6.1 92 92 NNW 23 37 30.04 1017 9 14 0.00 0.00
6:53 pm 18:53 Cloudy 23 -5 21 -6.1 92 92 NNW 23 37 29.99 1016 8 13 0.00 0.00
7:06 pm 19:06 Cloudy with Mist and Fog 23 -5 21 -6.1 92 92 NNW 28 44 30.04 1017 6 10 0.00 0.00
7:53 pm 19:53 Cloudy 23 -5 20 -6.7 88 88 NNW 24 39 29.99 1016 8 13 0.00 0.00
8:53 pm 20:53 Cloudy 22 -5.6 20 -6.7 92 92 NNW 23 37 29.97 1015 10 16 0.00 0.00
9:12 pm 21:12 Cloudy 22 -5.6 20 -6.7 92 92 NNW 17 28 30.01 1016 10 16 0.00 0.00
9:53 pm 21:53 Cloudy 22 -5.6 19 -7.2 89 89 N 17 28 29.97 1015 10 16 0.00 0.00
10:53 pm 22:53 Cloudy 21 -6.1 19 -7.2 92 92 N 16 26 29.97 1015 10 16 0.00 0.00
11:53 pm 23:53 Cloudy 21 -6.1 19 -7.2 92 92 NNW 16 26 29.96 1015 10 16 0.00 0.00

Powered by AerisWeather